Paso Robles, CA

9:42 AM PDT on May 25, 2018 (GMT -0700)
Paso Robles Municipal

Weather History for KPRB - November, 2011

Change the Weather History Date:

Tuesday, November 22, 2011

  Actual Average Record
Temperature  
Mean Temperature 49 °F 50 °F  
Max Temperature 60 °F 64 °F 88 °F (2017)
Min Temperature 37 °F 36 °F 26 °F (1948)
Degree Days  
Heating Degree Days 16 15  
Month to date heating degree days 301 251  
Since 1 July heating degree days 401 421  
Cooling Degree Days 0 0  
Month to date cooling degree days 0 0  
Year to date cooling degree days 940 926  
Moisture  
Dew Point 41 °F    
Average Humidity 80    
Maximum Humidity 100    
Minimum Humidity 60    
Precipitation  
Precipitation 0.00 in 0.03 in 0.83 in (1965)
Month to date precipitation 1.75 0.73  
Year to date precipitation 12.56 10.47  
Since 1 July precipitation 2.74  
Sea Level Pressure  
Sea Level Pressure 30.24 in    
Wind  
Wind Speed 2 mph (SW)    
Max Wind Speed 6 mph    
Max Gust Speed -    
Visibility 4 miles    
Events Fog    
T = Trace of Precipitation, MM = Missing Value Source: NWS Daily Summary

Daily Weather History Graph

Daily Weather History Graph

Search for Another Location

Airport or City:

Astronomy

Nov. 22, 2011 Rise Set
Actual Time 6:45 AM PST 4:51 PM PST
Civil Twilight 6:17 AM PST 5:19 PM PST
Nautical Twilight 5:46 AM PST 5:50 PM PST
Astronomical Twilight 5:15 AM PST 6:21 PM PST
Moon 3:45 AM PST (11/22) 2:51 PM PST (11/22)
Length of Visible Light 11h 01m
Length of Day
10h 06m
Waning Crescent, 9% of the Moon is Illuminated
Nov 22
Waning Crescent
Nov 24
New
Dec 2
First Quarter
Dec 10
Full
Dec 17
Last Quarter

Hourly Weather History & Observations

Time (PST) Temp. Windchill Dew Point Humidity Pressure Visibility Wind Dir Wind Speed Gust Speed Precip Events Conditions
12:17 AM 39.2 °F - 37.4 °F 93% 30.27 in 1.8 mi Calm Calm - N/A   Scattered Clouds
12:19 AM 39.2 °F - 37.4 °F 93% 30.27 in 0.5 mi Calm Calm - N/A Fog Fog
12:53 AM 39.0 °F - 39.0 °F 100% 30.28 in 0.2 mi Calm Calm - N/A Fog Fog
1:02 AM 39.2 °F - 37.4 °F 93% 30.27 in 0.5 mi Calm Calm - N/A Fog Fog
1:17 AM 39.2 °F - 37.4 °F 93% 30.27 in 0.2 mi Calm Calm - N/A Fog Fog
1:53 AM 39.9 °F - 37.9 °F 93% 30.28 in 0.2 mi Calm Calm - N/A Fog Fog
2:53 AM 39.0 °F - 37.9 °F 96% 30.29 in 0.2 mi Calm Calm - N/A Fog Fog
3:27 AM 39.2 °F - 37.4 °F 93% 30.28 in 0.2 mi Calm Calm - 0.01 in Fog Fog
3:53 AM 39.0 °F - 37.9 °F 96% 30.29 in 0.2 mi Calm Calm - 0.01 in Fog Fog
4:27 AM 37.4 °F - 35.6 °F 93% 30.28 in 0.2 mi Calm Calm - N/A Fog Fog
4:53 AM 37.9 °F - 37.0 °F 97% 30.29 in 0.2 mi Calm Calm - N/A Fog Fog
5:53 AM 37.9 °F 35.5 °F 37.0 °F 97% 30.30 in 0.2 mi NE 3.5 mph - N/A Fog Fog
6:32 AM 37.4 °F 33.8 °F 35.6 °F 93% 30.29 in 0.2 mi ENE 4.6 mph - N/A Fog Fog
6:53 AM 37.0 °F 33.3 °F 35.1 °F 93% 30.31 in 0.2 mi ENE 4.6 mph - 0.01 in Fog Fog
7:53 AM 37.4 °F 33.8 °F 37.4 °F 100% 30.31 in 0.2 mi NE 4.6 mph - N/A Fog Fog
8:53 AM 39.0 °F - 39.0 °F 100% 30.32 in 0.2 mi Calm Calm - N/A Fog Fog
9:53 AM 41.0 °F 39.0 °F 39.9 °F 96% 30.31 in 0.2 mi SW 3.5 mph - N/A Fog Fog
10:53 AM 43.0 °F 41.3 °F 42.1 °F 97% 30.29 in 0.2 mi West 3.5 mph - N/A Fog Fog
11:25 AM 44.6 °F 43.1 °F 42.8 °F 93% 30.26 in 0.5 mi West 3.5 mph - N/A Fog Fog
11:33 AM 44.6 °F 43.1 °F 42.8 °F 93% 30.26 in 0.2 mi West 3.5 mph - N/A Fog Fog
11:44 AM 44.6 °F 43.1 °F 44.6 °F 100% 30.25 in 0.5 mi West 3.5 mph - N/A Fog Fog
11:53 AM 45.0 °F - 44.1 °F 97% 30.26 in 1.2 mi Calm Calm - N/A   Overcast
12:00 PM 44.6 °F - 44.6 °F 100% 30.25 in 3.0 mi Calm Calm - N/A   Overcast
12:51 PM 51.8 °F - 46.4 °F 82% 30.21 in 10.0 mi Calm Calm - N/A   Scattered Clouds
12:53 PM 51.1 °F - 46.0 °F 83% 30.21 in 10.0 mi Calm Calm - N/A   Partly Cloudy
1:53 PM 55.4 °F - 46.4 °F 72% 30.18 in 10.0 mi Calm Calm - N/A   Clear
2:53 PM 60.1 °F - 46.0 °F 60% 30.16 in 10.0 mi WSW 3.5 mph - N/A   Clear
3:53 PM 60.1 °F - 46.9 °F 62% 30.14 in 10.0 mi SSW 3.5 mph - N/A   Clear
4:53 PM 57.2 °F - 46.4 °F 67% 30.14 in 10.0 mi SSW 4.6 mph - N/A   Clear
5:53 PM 53.1 °F - 46.9 °F 80% 30.14 in 10.0 mi South 3.5 mph - N/A   Clear
6:53 PM 50.0 °F - 46.9 °F 89% 30.14 in 10.0 mi Calm Calm - N/A   Clear
7:53 PM 46.4 °F - 44.6 °F 93% 30.14 in 10.0 mi Calm Calm - N/A   Clear
8:53 PM 46.9 °F - 45.0 °F 93% 30.16 in 10.0 mi Calm Calm - N/A   Clear
10:53 PM 41.0 °F - 39.0 °F 93% 30.14 in 10.0 mi Calm Calm - N/A   Clear
11:39 PM 39.2 °F - 37.4 °F 93% 30.13 in 10.0 mi Calm Calm - N/A   Scattered Clouds
11:53 PM 39.9 °F 37.8 °F 37.9 °F 93% 30.13 in 10.0 mi SE 3.5 mph - N/A   Scattered Clouds